#Datum;Uhrzeit;WR;Pac;DaySum;Status;WR;Pac;DaySum;Status;Pdc1;Udc;Temp;WR;Pac;DaySum;Status;Pdc1;Udc;Temp;WR;Pac;DaySum;Status;Pdc1;Udc;Temp;WR;Pac;DaySum;Status;Pdc1;Pdc2;Udc1;Udc2;Temp;WR;Pac;DaySum;Status;Pdc1;Pdc2;Udc1;Udc2;Temp;WR;Pac;DaySum;Status;Pdc1;Udc;Temp;WR;Pac;DaySum;Status;Pdc1;Udc;Temp;WR;Pac;DaySum;Status;Pdc1;Udc;Temp
13.03.21;23:55:00;1;410;18978;0;2;0;9651;0;0;0;0;3;0;6127;0;0;0;0;4;0;8594;0;0;0;0;5;0;0;0;0;0;0;0;0;6;0;15076;0;0;0;0;0;0;7;0;11404;0;0;0;0;8;0;11389;0;0;0;0;9;0;6152;0;0;0;0
13.03.21;23:50:00;1;426;18943;0;2;0;9651;0;0;0;0;3;0;6127;0;0;0;0;4;0;8594;0;0;0;0;5;0;0;0;0;0;0;0;0;6;0;15076;0;0;0;0;0;0;7;0;11404;0;0;0;0;8;0;11389;0;0;0;0;9;0;6152;0;0;0;0
13.03.21;23:45:00;1;446;18908;0;2;0;9651;0;0;0;0;3;0;6127;0;0;0;0;4;0;8594;0;0;0;0;5;0;0;0;0;0;0;0;0;6;0;15076;0;0;0;0;0;0;7;0;11404;0;0;0;0;8;0;11389;0;0;0;0;9;0;6152;0;0;0;0
13.03.21;23:40:00;1;434;18872;0;2;0;9651;0;0;0;0;3;0;6127;0;0;0;0;4;0;8594;0;0;0;0;5;0;0;0;0;0;0;0;0;6;0;15076;0;0;0;0;0;0;7;0;11404;0;0;0;0;8;0;11389;0;0;0;0;9;0;6152;0;0;0;0
13.03.21;23:35:00;1;399;18836;0;2;0;9651;0;0;0;0;3;0;6127;0;0;0;0;4;0;8594;0;0;0;0;5;0;0;0;0;0;0;0;0;6;0;15076;0;0;0;0;0;0;7;0;11404;0;0;0;0;8;0;11389;0;0;0;0;9;0;6152;0;0;0;0
13.03.21;23:30:00;1;404;18803;0;2;0;9651;0;0;0;0;3;0;6127;0;0;0;0;4;0;8594;0;0;0;0;5;0;0;0;0;0;0;0;0;6;0;15076;0;0;0;0;0;0;7;0;11404;0;0;0;0;8;0;11389;0;0;0;0;9;0;6152;0;0;0;0
13.03.21;23:25:00;1;408;18769;0;2;0;9651;0;0;0;0;3;0;6127;0;0;0;0;4;0;8594;0;0;0;0;5;0;0;0;0;0;0;0;0;6;0;15076;0;0;0;0;0;0;7;0;11404;0;0;0;0;8;0;11389;0;0;0;0;9;0;6152;0;0;0;0
13.03.21;23:20:00;1;451;18735;0;2;0;9651;0;0;0;0;3;0;6127;0;0;0;0;4;0;8594;0;0;0;0;5;0;0;0;0;0;0;0;0;6;0;15076;0;0;0;0;0;0;7;0;11404;0;0;0;0;8;0;11389;0;0;0;0;9;0;6152;0;0;0;0
13.03.21;23:15:00;1;440;18697;0;2;0;9651;0;0;0;0;3;0;6127;0;0;0;0;4;0;8594;0;0;0;0;5;0;0;0;0;0;0;0;0;6;0;15076;0;0;0;0;0;0;7;0;11404;0;0;0;0;8;0;11389;0;0;0;0;9;0;6152;0;0;0;0
13.03.21;23:10:00;1;446;18661;0;2;0;9651;0;0;0;0;3;0;6127;0;0;0;0;4;0;8594;0;0;0;0;5;0;0;0;0;0;0;0;0;6;0;15076;0;0;0;0;0;0;7;0;11404;0;0;0;0;8;0;11389;0;0;0;0;9;0;6152;0;0;0;0
13.03.21;23:05:00;1;489;18624;0;2;0;9651;0;0;0;0;3;0;6127;0;0;0;0;4;0;8594;0;0;0;0;5;0;0;0;0;0;0;0;0;6;0;15076;0;0;0;0;0;0;7;0;11404;0;0;0;0;8;0;11389;0;0;0;0;9;0;6152;0;0;0;0
13.03.21;23:00:00;1;493;18584;0;2;0;9651;0;0;0;0;3;0;6127;0;0;0;0;4;0;8594;0;0;0;0;5;0;0;0;0;0;0;0;0;6;0;15076;0;0;0;0;0;0;7;0;11404;0;0;0;0;8;0;11389;0;0;0;0;9;0;6152;0;0;0;0
13.03.21;22:55:00;1;499;18543;0;2;0;9651;0;0;0;0;3;0;6127;0;0;0;0;4;0;8594;0;0;0;0;5;0;0;0;0;0;0;0;0;6;0;15076;2;0;0;0;0;0;7;0;11404;0;0;0;0;8;0;11389;0;0;0;0;9;0;6152;0;0;0;0
13.03.21;22:50:00;1;445;18501;0;2;0;9651;0;0;0;0;3;0;6127;0;0;0;0;4;0;8594;0;0;0;0;5;0;0;0;0;0;0;0;0;6;0;15076;2;0;0;0;0;0;7;0;11404;0;0;0;0;8;0;11389;0;0;0;0;9;0;6152;0;0;0;0
13.03.21;22:45:00;1;457;18464;0;2;0;9651;0;0;0;0;3;0;6127;0;0;0;0;4;0;8594;0;0;0;0;5;0;0;0;0;0;0;0;0;6;0;15076;2;0;0;0;0;0;7;0;11404;0;0;0;0;8;0;11389;0;0;0;0;9;0;6152;0;0;0;0
13.03.21;22:40:00;1;445;18426;0;2;0;9651;0;0;0;0;3;0;6127;0;0;0;0;4;0;8594;0;0;0;0;5;0;0;0;0;0;0;0;0;6;0;15076;2;0;0;0;0;0;7;0;11404;0;0;0;0;8;0;11389;0;0;0;0;9;0;6152;0;0;0;0
13.03.21;22:35:00;1;420;18389;0;2;0;9651;0;0;0;0;3;0;6127;0;0;0;0;4;0;8594;0;0;0;0;5;0;0;0;0;0;0;0;0;6;0;15076;2;0;0;0;0;0;7;0;11404;0;0;0;0;8;0;11389;0;0;0;0;9;0;6152;0;0;0;0
13.03.21;22:30:00;1;413;18354;0;2;0;9651;0;0;0;0;3;0;6127;0;0;0;0;4;0;8594;0;0;0;0;5;0;0;0;0;0;0;0;0;6;0;15076;2;0;0;0;0;0;7;0;11404;0;0;0;0;8;0;11389;0;0;0;0;9;0;6152;0;0;0;0
13.03.21;22:25:00;1;397;18320;0;2;0;9651;0;0;0;0;3;0;6127;0;0;0;0;4;0;8594;0;0;0;0;5;0;0;0;0;0;0;0;0;6;0;15076;2;0;0;0;0;0;7;0;11404;0;0;0;0;8;0;11389;0;0;0;0;9;0;6152;0;0;0;0
13.03.21;22:20:00;1;412;18287;0;2;0;9651;0;0;0;0;3;0;6127;0;0;0;0;4;0;8594;0;0;0;0;5;0;0;0;0;0;0;0;0;6;0;15076;2;0;0;0;0;0;7;0;11404;0;0;0;0;8;0;11389;0;0;0;0;9;0;6152;0;0;0;0
13.03.21;22:15:00;1;457;18253;0;2;0;9651;0;0;0;0;3;0;6127;0;0;0;0;4;0;8594;0;0;0;0;5;0;0;0;0;0;0;0;0;6;0;15076;2;0;0;0;0;0;7;0;11404;0;0;0;0;8;0;11389;0;0;0;0;9;0;6152;0;0;0;0
13.03.21;22:10:00;1;443;18215;0;2;0;9651;0;0;0;0;3;0;6127;0;0;0;0;4;0;8594;0;0;0;0;5;0;0;0;0;0;0;0;0;6;0;15076;2;0;0;0;0;0;7;0;11404;0;0;0;0;8;0;11389;0;0;0;0;9;0;6152;0;0;0;0
13.03.21;22:05:00;1;492;18178;0;2;0;9651;0;0;0;0;3;0;6127;0;0;0;0;4;0;8594;0;0;0;0;5;0;0;0;0;0;0;0;0;6;0;15076;2;0;0;0;0;0;7;0;11404;0;0;0;0;8;0;11389;0;0;0;0;9;0;6152;0;0;0;0
13.03.21;22:00:00;1;454;18138;0;2;0;9651;0;0;0;0;3;0;6127;0;0;0;0;4;0;8594;0;0;0;0;5;0;0;0;0;0;0;0;0;6;0;15076;2;0;0;0;0;0;7;0;11404;0;0;0;0;8;0;11389;0;0;0;0;9;0;6152;0;0;0;0
13.03.21;21:55:00;1;544;18101;0;2;0;9651;0;0;0;0;3;0;6127;0;0;0;0;4;0;8594;0;0;0;0;5;0;0;0;0;0;0;0;0;6;0;15076;2;0;0;0;0;0;7;0;11404;0;0;0;0;8;0;11389;0;0;0;0;9;0;6152;0;0;0;0
13.03.21;21:50:00;1;945;18056;0;2;0;9651;0;0;0;0;3;0;6127;0;0;0;0;4;0;8594;0;0;0;0;5;0;0;0;0;0;0;0;0;6;0;15076;2;0;0;0;0;0;7;0;11404;0;0;0;0;8;0;11389;0;0;0;0;9;0;6152;0;0;0;0
13.03.21;21:45:00;1;573;17962;0;2;0;9651;0;0;0;0;3;0;6127;0;0;0;0;4;0;8594;0;0;0;0;5;0;0;0;0;0;0;0;0;6;0;15076;2;0;0;0;0;0;7;0;11404;0;0;0;0;8;0;11389;0;0;0;0;9;0;6152;0;0;0;0
13.03.21;21:40:00;1;480;17912;0;2;0;9651;0;0;0;0;3;0;6127;0;0;0;0;4;0;8594;0;0;0;0;5;0;0;0;0;0;0;0;0;6;0;15076;2;0;0;0;0;0;7;0;11404;0;0;0;0;8;0;11389;0;0;0;0;9;0;6152;0;0;0;0
13.03.21;21:35:00;1;393;17872;0;2;0;9651;0;0;0;0;3;0;6127;0;0;0;0;4;0;8594;0;0;0;0;5;0;0;0;0;0;0;0;0;6;0;15076;2;0;0;0;0;0;7;0;11404;0;0;0;0;8;0;11389;0;0;0;0;9;0;6152;0;0;0;0
13.03.21;21:30:00;1;415;17838;0;2;0;9651;0;0;0;0;3;0;6127;0;0;0;0;4;0;8594;0;0;0;0;5;0;0;0;0;0;0;0;0;6;0;15076;2;0;0;0;0;0;7;0;11404;0;0;0;0;8;0;11389;0;0;0;0;9;0;6152;0;0;0;0
13.03.21;21:25:00;1;419;17804;0;2;0;9651;0;0;0;0;3;0;6127;0;0;0;0;4;0;8594;0;0;0;0;5;0;0;0;0;0;0;0;0;6;0;15076;2;0;0;0;0;0;7;0;11404;0;0;0;0;8;0;11389;0;0;0;0;9;0;6152;0;0;0;0
13.03.21;21:20:00;1;432;17769;0;2;0;9651;0;0;0;0;3;0;6127;0;0;0;0;4;0;8594;0;0;0;0;5;0;0;0;0;0;0;0;0;6;0;15076;2;0;0;0;0;0;7;0;11404;0;0;0;0;8;0;11389;0;0;0;0;9;0;6152;0;0;0;0
13.03.21;21:15:00;1;449;17733;0;2;0;9651;0;0;0;0;3;0;6127;0;0;0;0;4;0;8594;0;0;0;0;5;0;0;0;0;0;0;0;0;6;0;15076;2;0;0;0;0;0;7;0;11404;0;0;0;0;8;0;11389;0;0;0;0;9;0;6152;0;0;0;0
13.03.21;21:10:00;1;411;17696;0;2;0;9651;0;0;0;0;3;0;6127;0;0;0;0;4;0;8594;0;0;0;0;5;0;0;0;0;0;0;0;0;6;0;15076;2;0;0;0;0;0;7;0;11404;0;0;0;0;8;0;11389;0;0;0;0;9;0;6152;0;0;0;0
13.03.21;21:05:00;1;434;17661;0;2;0;9651;0;0;0;0;3;0;6127;0;0;0;0;4;0;8594;0;0;0;0;5;0;0;0;0;0;0;0;0;6;0;15076;2;0;0;0;0;0;7;0;11404;0;0;0;0;8;0;11389;0;0;0;0;9;0;6152;0;0;0;0
13.03.21;21:00:00;1;460;17625;0;2;0;9651;0;0;0;0;3;0;6127;0;0;0;0;4;0;8594;0;0;0;0;5;0;0;0;0;0;0;0;0;6;0;15076;2;0;0;0;0;0;7;0;11404;0;0;0;0;8;0;11389;0;0;0;0;9;0;6152;0;0;0;0
13.03.21;20:55:00;1;481;17587;0;2;0;9651;0;0;0;0;3;0;6127;0;0;0;0;4;0;8594;0;0;0;0;5;0;0;0;0;0;0;0;0;6;0;15076;2;0;0;0;0;0;7;0;11404;0;0;0;0;8;0;11389;0;0;0;0;9;0;6152;0;0;0;0
13.03.21;20:50:00;1;558;17547;0;2;0;9651;0;0;0;0;3;0;6127;0;0;0;0;4;0;8594;0;0;0;0;5;0;0;0;0;0;0;0;0;6;0;15076;2;0;0;0;0;0;7;0;11404;0;0;0;0;8;0;11389;0;0;0;0;9;0;6152;0;0;0;0
13.03.21;20:45:00;1;515;17502;0;2;0;9651;0;0;0;0;3;0;6127;0;0;0;0;4;0;8594;0;0;0;0;5;0;0;0;0;0;0;0;0;6;0;15076;2;0;0;0;0;0;7;0;11404;0;0;0;0;8;0;11389;0;0;0;0;9;0;6152;0;0;0;0
13.03.21;20:40:00;1;505;17457;0;2;0;9651;0;0;0;0;3;0;6127;0;0;0;0;4;0;8594;0;0;0;0;5;0;0;0;0;0;0;0;0;6;0;15076;2;0;0;0;0;0;7;0;11404;0;0;0;0;8;0;11389;0;0;0;0;9;0;6152;0;0;0;0
13.03.21;20:35:00;1;575;17415;0;2;0;9651;0;0;0;0;3;0;6127;0;0;0;0;4;0;8594;0;0;0;0;5;0;0;0;0;0;0;0;0;6;0;15076;2;0;0;0;0;0;7;0;11404;0;0;0;0;8;0;11389;0;0;0;0;9;0;6152;0;0;0;0
13.03.21;20:30:00;1;516;17367;0;2;0;9651;0;0;0;0;3;0;6127;0;0;0;0;4;0;8594;0;0;0;0;5;0;0;0;0;0;0;0;0;6;0;15076;2;0;0;0;0;0;7;0;11404;0;0;0;0;8;0;11389;0;0;0;0;9;0;6152;0;0;0;0
13.03.21;20:25:00;1;569;17322;0;2;0;9651;0;0;0;0;3;0;6127;0;0;0;0;4;0;8594;0;0;0;0;5;0;0;0;0;0;0;0;0;6;0;15076;2;0;0;0;0;0;7;0;11404;0;0;0;0;8;0;11389;0;0;0;0;9;0;6152;0;0;0;0
13.03.21;20:20:00;1;961;17274;0;2;0;9651;0;0;0;0;3;0;6127;0;0;0;0;4;0;8594;0;0;0;0;5;0;0;0;0;0;0;0;0;6;0;15076;2;0;0;0;0;0;7;0;11404;0;0;0;0;8;0;11389;0;0;0;0;9;0;6152;0;0;0;0
13.03.21;20:15:00;1;1008;17199;0;2;0;9651;0;0;0;0;3;0;6127;0;0;0;0;4;0;8594;0;0;0;0;5;0;0;0;0;0;0;0;0;6;0;15076;2;0;0;0;0;0;7;0;11404;0;0;0;0;8;0;11389;0;0;0;0;9;0;6152;0;0;0;0
13.03.21;20:10:00;1;1013;17115;0;2;0;9651;0;0;0;0;3;0;6127;0;0;0;0;4;0;8594;0;0;0;0;5;0;0;0;0;0;0;0;0;6;0;15076;2;0;0;0;0;0;7;0;11404;0;0;0;0;8;0;11389;0;0;0;0;9;0;6152;0;0;0;0
13.03.21;20:05:00;1;1073;17030;0;2;0;9651;0;0;0;0;3;0;6127;0;0;0;0;4;0;8594;0;0;0;0;5;0;0;0;0;0;0;0;0;6;0;15076;2;0;0;0;0;0;7;0;11404;0;0;0;0;8;0;11389;0;0;0;0;9;0;6152;0;0;0;0
13.03.21;20:00:00;1;1105;16942;0;2;0;9651;0;0;0;0;3;0;6127;0;0;0;0;4;0;8594;0;0;0;0;5;0;0;0;0;0;0;0;0;6;0;15076;2;0;0;0;0;0;7;0;11404;0;0;0;0;8;0;11389;0;0;0;0;9;0;6152;0;0;0;0
13.03.21;19:55:00;1;1132;16849;0;2;0;9651;0;0;0;0;3;0;6127;0;0;0;0;4;0;8594;0;0;0;0;5;0;0;0;0;0;0;0;0;6;0;15076;2;0;0;0;0;0;7;0;11404;0;0;0;0;8;0;11389;0;0;0;0;9;0;6152;0;0;0;0
13.03.21;19:50:00;1;1267;16754;0;2;0;9651;0;0;0;0;3;0;6127;0;0;0;0;4;0;8594;0;0;0;0;5;0;0;0;0;0;0;0;0;6;0;15076;2;0;0;0;0;0;7;0;11404;0;0;0;0;8;0;11389;0;0;0;0;9;0;6152;0;0;0;0
13.03.21;19:45:00;1;1165;16649;0;2;0;9651;0;0;0;0;3;0;6127;0;0;0;0;4;0;8594;0;0;0;0;5;0;0;0;0;0;0;0;0;6;0;15076;2;0;0;0;0;0;7;0;11404;0;0;0;0;8;0;11389;0;0;0;0;9;0;6152;0;0;0;0
13.03.21;19:40:00;1;1148;16550;0;2;0;9651;0;0;0;0;3;0;6127;0;0;0;0;4;0;8594;0;0;0;0;5;0;0;0;0;0;0;0;0;6;0;15076;2;0;0;0;0;0;7;0;11404;0;0;0;0;8;0;11389;0;0;0;0;9;0;6152;0;0;0;0
13.03.21;19:35:00;1;1136;16455;0;2;0;9651;0;0;0;0;3;0;6127;0;0;0;0;4;0;8594;0;0;0;0;5;0;0;0;0;0;0;0;0;6;0;15076;0;0;0;0;0;0;7;0;11404;0;0;0;0;8;0;11389;0;0;0;0;9;0;6152;0;0;0;0
13.03.21;19:30:00;1;1152;16360;0;2;0;9651;0;0;0;0;3;0;6127;0;0;0;0;4;0;8594;0;0;0;0;5;0;0;0;0;0;0;0;0;6;0;15076;2;0;0;0;0;0;7;0;11404;0;0;0;0;8;0;11389;0;0;0;0;9;0;6152;0;0;0;0
13.03.21;19:25:00;1;1037;16266;0;2;0;9651;0;0;0;0;3;0;6127;0;0;0;0;4;0;8594;0;0;0;0;5;0;0;0;0;0;0;0;0;6;0;15076;2;0;0;0;0;0;7;0;11404;0;0;0;0;8;0;11389;0;0;0;0;9;0;6152;0;0;0;0
13.03.21;19:20:00;1;1280;16180;0;2;0;9651;0;0;0;0;3;0;6127;0;0;0;0;4;0;8594;0;0;0;0;5;0;0;0;0;0;0;0;0;6;0;15076;2;0;0;0;0;0;7;0;11404;0;0;0;0;8;0;11389;0;0;0;0;9;0;6152;0;0;0;0
13.03.21;19:15:00;1;1415;16075;0;2;0;9651;0;0;0;0;3;0;6127;0;0;0;0;4;0;8594;0;0;0;0;5;0;0;0;0;0;0;0;0;6;0;15076;2;0;0;0;0;0;7;0;11404;0;0;0;0;8;0;11389;0;0;0;0;9;0;6152;0;0;0;0
13.03.21;19:10:00;1;1117;15956;0;2;0;9651;0;0;0;0;3;0;6127;0;0;0;0;4;0;8594;0;0;0;0;5;0;0;0;0;0;0;0;0;6;0;15076;2;0;0;0;0;0;7;0;11404;0;0;0;0;8;0;11389;0;0;0;0;9;0;6152;0;0;0;0
13.03.21;19:05:00;1;994;15863;0;2;0;9651;0;0;0;0;3;0;6127;0;0;0;0;4;0;8594;0;0;0;0;5;0;0;0;0;0;0;0;0;6;0;15076;2;0;0;0;0;0;7;0;11404;0;0;0;0;8;0;11389;0;0;0;0;9;0;6152;0;0;0;0
13.03.21;19:00:00;1;1033;15781;0;2;0;9651;0;0;0;0;3;0;6127;0;0;0;0;4;0;8594;0;0;0;0;5;0;0;0;0;0;0;0;0;6;0;15076;2;0;0;0;0;0;7;0;11404;0;0;0;0;8;0;11389;0;0;0;0;9;0;6152;0;0;0;0
13.03.21;18:55:00;1;997;15695;0;2;0;9651;0;0;0;0;3;0;6127;0;0;0;0;4;0;8594;0;0;0;0;5;0;0;0;0;0;0;0;0;6;0;15076;2;0;0;0;0;0;7;0;11404;0;0;0;0;8;0;11389;0;0;0;0;9;0;6152;0;0;0;0
13.03.21;18:50:00;1;985;15613;0;2;0;9651;0;0;0;0;3;0;6127;0;0;0;0;4;0;8594;0;0;0;0;5;0;0;0;0;0;0;0;0;6;0;15076;2;0;0;0;0;0;7;0;11404;0;0;0;0;8;0;11389;0;0;0;0;9;0;6152;0;0;0;0
13.03.21;18:45:00;1;970;15527;0;2;0;9651;0;0;0;0;3;0;6127;0;0;0;0;4;0;8594;0;0;0;0;5;0;0;0;0;0;0;0;0;6;0;15076;2;0;0;0;0;0;7;0;11404;0;0;0;0;8;0;11389;0;0;0;0;9;0;6152;0;0;0;0
13.03.21;18:40:00;1;823;15444;0;2;0;9651;0;0;0;0;3;0;6127;0;0;0;0;4;0;8594;0;0;0;0;5;0;0;0;0;0;0;0;0;6;0;15076;2;0;0;0;0;0;7;0;11404;0;0;0;0;8;0;11389;0;0;0;0;9;0;6152;0;0;0;0
13.03.21;18:35:00;1;832;15375;0;2;0;9651;0;0;0;0;3;0;6127;0;0;0;0;4;0;8594;0;0;0;0;5;0;0;0;0;0;0;0;0;6;0;15076;2;0;0;0;0;0;7;0;11404;0;0;0;0;8;0;11389;0;0;0;0;9;0;6152;0;0;0;0
13.03.21;18:30:00;1;853;15306;0;2;0;9651;0;0;0;0;3;0;6127;0;0;0;0;4;0;8594;0;0;0;0;5;0;0;0;0;0;0;0;0;6;0;15076;2;0;0;0;0;0;7;0;11404;0;0;0;0;8;0;11389;0;0;0;0;9;0;6152;0;0;0;0
13.03.21;18:25:00;1;961;15235;0;2;0;9651;0;0;31;1;3;0;6127;0;0;134;8;4;0;8594;0;0;0;0;5;0;0;0;0;0;0;0;0;6;0;15076;2;0;0;0;0;0;7;0;11404;0;0;0;0;8;0;11389;0;0;0;0;9;0;6152;0;0;0;0
13.03.21;18:20:00;1;1232;15153;0;2;0;9651;6;0;270;13;3;0;6127;6;0;302;16;4;0;8594;0;0;0;0;5;0;0;0;0;0;0;0;0;6;0;15076;2;0;0;0;0;0;7;0;11404;0;0;0;0;8;0;11389;0;0;0;0;9;0;6152;0;0;0;0
13.03.21;18:15:00;1;827;15064;0;2;0;9651;6;0;282;14;3;0;6127;6;0;315;16;4;0;8594;2;0;76;16;5;0;0;0;0;0;0;0;0;6;0;15076;2;0;0;0;0;0;7;0;11404;0;0;0;0;8;0;11389;0;0;0;0;9;0;6152;0;0;0;0
13.03.21;18:10:00;1;479;14993;0;2;0;9651;6;0;327;14;3;0;6127;6;1;386;17;4;0;8594;1;0;126;16;5;0;0;0;0;0;0;0;0;6;0;15076;23;7;4;233;430;25;7;0;11404;0;0;233;15;8;0;11389;0;0;235;15;9;0;6152;6;0;291;13
13.03.21;18:05:00;1;418;14953;0;2;0;9651;6;0;381;14;3;1;6127;6;3;444;17;4;0;8594;1;0;183;17;5;0;0;0;0;0;0;0;0;6;0;15076;23;7;3;279;552;26;7;0;11404;6;0;387;18;8;0;11389;6;0;391;18;9;0;6152;6;1;406;13
13.03.21;18:00:00;1;413;14917;0;2;0;9651;6;0;409;14;3;3;6127;6;12;464;17;4;0;8594;3;0;199;17;5;0;0;0;0;0;0;0;0;6;28;15076;1;11;8;509;364;26;7;2;11404;6;4;446;18;8;0;11389;6;4;446;18;9;2;6152;6;3;490;13
13.03.21;17:55:00;1;474;14882;0;2;67;9651;4;96;361;15;3;5;6127;6;11;526;17;4;31;8594;3;32;198;17;5;0;0;0;0;0;0;0;0;6;83;15073;4;57;33;452;223;27;7;44;11404;6;66;415;19;8;43;11389;6;64;417;18;9;1;6152;6;6;531;14
13.03.21;17:50:00;1;456;14844;0;2;96;9646;4;126;358;15;3;37;6126;6;59;383;17;4;48;8591;3;50;197;17;5;0;0;0;0;0;0;0;0;6;111;15066;4;68;40;452;223;27;7;72;11400;4;107;438;19;8;69;11386;4;107;444;19;9;13;6152;4;20;517;14
13.03.21;17:45:00;1;389;14806;0;2;99;9638;4;128;366;15;3;47;6123;4;75;367;17;4;52;8588;3;54;197;17;5;0;0;0;0;0;0;0;0;6;112;15057;4;85;48;452;223;27;7;66;11395;4;103;458;19;8;74;11380;4;110;456;19;9;21;6151;3;33;494;14
13.03.21;17:40:00;1;399;14773;0;2;91;9630;4;120;369;15;3;7;6119;6;13;535;17;4;49;8583;3;51;197;17;5;0;0;0;0;0;0;0;0;6;102;15047;4;62;36;452;223;27;7;62;11389;4;95;458;19;8;67;11374;4;100;453;19;9;12;6149;6;21;516;14
13.03.21;17:35:00;1;372;14740;0;2;83;9622;4;111;355;15;3;7;6118;6;11;532;18;4;49;8579;3;51;197;17;5;0;0;0;0;0;0;0;0;6;94;15039;4;57;33;452;223;27;7;54;11384;4;92;442;19;8;51;11368;4;92;442;19;9;10;6148;6;17;511;14
13.03.21;17:30:00;1;369;14709;0;2;113;9615;4;143;362;16;3;34;6118;6;50;496;18;4;66;8575;3;68;204;17;5;0;0;0;0;0;0;0;0;6;97;15031;4;55;31;452;223;27;7;85;11379;4;127;450;19;8;64;11364;4;99;454;19;9;7;6147;6;16;512;14
13.03.21;17:25:00;1;405;14678;0;2;105;9606;4;134;363;16;3;48;6114;4;75;455;18;4;55;8569;3;58;198;18;5;0;0;0;0;0;0;0;0;6;108;15023;4;73;40;451;223;27;7;51;11371;4;89;461;19;8;50;11358;4;85;465;19;9;6;6147;6;9;541;14
13.03.21;17:20:00;1;401;14642;0;2;95;9597;4;124;362;16;3;7;6110;6;13;535;18;4;46;8564;3;47;197;18;5;0;0;0;0;0;0;0;0;6;106;15014;4;72;40;452;223;27;7;48;11366;4;91;433;19;8;44;11354;4;91;453;19;9;5;6146;6;9;540;15
13.03.21;17:15:00;1;453;14609;0;2;104;9589;4;135;357;16;3;40;6110;6;67;493;18;4;64;8560;3;66;198;18;5;0;0;0;0;0;0;0;0;6;122;15005;4;98;54;452;223;27;7;72;11362;4;107;440;19;8;63;11350;4;99;460;19;9;11;6146;3;18;528;15
13.03.21;17:10:00;1;496;14571;0;2;100;9580;4;133;365;16;3;18;6106;4;30;521;19;4;55;8555;3;58;197;18;5;0;0;0;0;0;0;0;0;6;120;14995;4;84;46;451;223;27;7;69;11356;4;108;438;19;8;72;11345;4;109;437;19;9;13;6145;6;19;518;15
13.03.21;17:05:00;1;676;14529;0;2;147;9572;4;178;367;16;3;80;6105;4;117;485;19;4;98;8550;3;102;211;18;5;0;0;0;0;0;0;0;0;6;157;14984;4;127;66;452;223;27;7;118;11351;4;153;418;19;8;119;11339;4;150;412;19;9;35;6143;6;50;517;15
13.03.21;17:00:00;1;609;14468;0;2;177;9560;4;213;376;17;3;100;6099;4;138;505;19;4;126;8542;5;131;227;18;5;0;0;0;0;0;0;0;0;6;188;14971;4;124;68;452;223;27;7;149;11341;4;191;441;19;8;156;11329;4;190;412;19;9;83;6141;4;110;463;16
13.03.21;16:55:00;1;678;14416;0;2;224;9545;4;261;386;17;3;133;6090;4;172;496;19;4;176;8532;5;184;226;18;5;0;0;0;0;0;0;0;0;6;225;14955;4;170;86;452;223;27;7;207;11328;4;241;447;19;8;207;11316;4;245;456;19;9;110;6134;4;141;497;16
13.03.21;16:50:00;1;653;14359;0;2;203;9527;4;236;373;17;3;122;6079;4;159;502;19;4;152;8517;5;159;223;18;5;0;0;0;0;0;0;0;0;6;207;14936;4;113;59;451;223;27;7;198;11311;4;231;457;19;8;194;11299;4;233;469;19;9;106;6125;4;138;499;16
13.03.21;16:45:00;1;588;14305;0;2;178;9510;4;210;370;17;3;99;6069;4;139;505;19;4;131;8505;5;136;225;18;5;0;0;0;0;0;0;0;0;6;190;14919;4;116;62;451;223;27;7;164;11295;4;199;465;20;8;170;11283;4;204;454;19;9;79;6116;4;101;483;16
13.03.21;16:40:00;1;522;14253;0;2;145;9495;4;179;376;17;3;82;6061;4;121;491;20;4;99;8493;3;103;210;19;5;0;0;0;0;0;0;0;0;6;164;14903;4;100;52;451;223;27;7;119;11281;4;160;436;20;8;129;11269;4;159;442;19;9;35;6109;0;50;440;13
13.03.21;16:35:00;1;503;14208;0;2;155;9482;4;187;369;17;3;88;6054;4;126;483;20;4;109;8485;5;114;219;19;5;0;0;0;0;0;0;0;0;6;171;14889;4;103;53;452;223;27;7;135;11271;4;167;405;20;8;137;11258;4;174;406;19;9;74;6106;4;102;482;16
13.03.21;16:30:00;1;575;14165;0;2;194;9469;4;229;371;17;3;115;6046;4;153;493;20;4;149;8476;5;155;220;19;5;0;0;0;0;0;0;0;0;6;206;14875;4;125;67;452;223;27;7;163;11259;4;202;437;20;8;168;11247;4;199;407;20;9;90;6100;4;119;482;17
13.03.21;16:25:00;1;640;14116;0;2;218;9453;4;253;377;18;3;131;6037;4;168;500;20;4;169;8463;5;176;225;19;5;0;0;0;0;0;0;0;0;6;223;14857;4;139;72;452;223;27;7;198;11245;4;240;457;20;8;209;11232;4;245;462;20;9;116;6092;4;145;493;17
13.03.21;16:20:00;1;549;14061;0;2;145;9435;4;180;367;18;3;83;6026;4;118;485;20;4;99;8449;5;103;213;19;5;0;0;0;0;0;0;0;0;6;163;14838;4;99;51;452;223;27;7;125;11229;4;161;434;20;8;130;11215;4;164;434;20;9;68;6082;4;97;466;17
13.03.21;16:15:00;1;545;14016;0;2;143;9422;4;177;375;18;3;83;6019;4;117;471;20;4;107;8440;5;111;217;20;5;0;0;0;0;0;0;0;0;6;172;14825;4;103;56;451;223;27;7;136;11218;4;174;442;20;8;144;11204;4;178;422;20;9;75;6077;4;101;458;17
13.03.21;16:10:00;1;548;13971;0;2;171;9411;4;206;373;18;3;101;6012;4;138;484;21;4;132;8431;5;138;225;20;5;0;0;0;0;0;0;0;0;6;215;14810;4;140;86;451;256;27;7;192;11207;4;228;445;20;8;190;11192;4;228;446;20;9;103;6070;4;131;489;17
13.03.21;16:05:00;1;969;13928;0;2;206;9396;4;239;375;19;3;116;6003;4;156;497;21;4;161;8420;5;168;225;20;5;0;0;0;0;0;0;0;0;6;342;14791;4;160;174;532;509;28;7;205;11191;4;241;446;20;8;208;11176;4;244;440;20;9;108;6062;4;139;495;17
13.03.21;16:00:00;1;1042;13843;0;2;277;9380;4;315;382;19;3;169;5994;4;208;479;21;4;230;8407;5;240;228;20;5;0;0;0;0;0;0;0;0;6;461;14762;4;231;244;567;550;28;7;287;11174;4;327;461;21;8;291;11159;4;329;454;20;9;155;6053;4;187;499;18
13.03.21;15:55:00;1;1085;13754;0;2;415;9356;4;460;394;19;3;258;5980;4;300;498;21;4;360;8388;5;375;233;20;5;0;0;0;0;0;0;0;0;6;663;14722;4;319;328;573;550;28;7;428;11150;4;465;461;21;8;429;11134;4;468;458;20;9;228;6040;4;262;509;18
13.03.21;15:50:00;1;1056;13666;0;2;399;9323;4;441;384;19;3;251;5959;4;294;500;21;4;348;8359;5;363;232;21;5;0;0;0;0;0;0;0;0;6;647;14667;4;325;325;568;550;28;7;466;11115;4;507;467;21;8;472;11100;4;510;454;21;9;253;6021;4;293;511;18
13.03.21;15:45:00;1;1926;13576;0;2;243;9291;4;281;377;19;3;145;5939;4;185;501;21;4;201;8331;5;209;225;21;5;0;0;0;0;0;0;0;0;6;420;14617;4;214;231;570;542;28;7;264;11078;4;307;458;21;8;265;11061;4;308;452;21;9;146;6001;4;177;494;18
13.03.21;15:40:00;1;2741;13425;0;2;319;9270;4;360;392;20;3;193;5927;4;233;505;22;4;269;8314;5;280;228;21;5;0;0;0;0;0;0;0;0;6;530;14582;4;271;284;573;545;28;7;194;11051;0;214;279;12;8;222;11040;4;251;371;16;9;79;5982;0;95;203;7
13.03.21;15:35:00;1;2899;13194;0;2;536;9244;4;583;393;20;3;333;5910;4;382;498;22;4;465;8292;5;484;235;21;5;0;0;0;0;0;0;0;0;6;853;14534;4;430;433;586;556;28;7;589;11030;4;632;475;21;8;586;11015;4;637;470;21;9;315;5974;4;358;514;19
13.03.21;15:30:00;1;2903;12957;0;2;569;9199;4;620;392;21;3;356;5883;4;406;498;22;4;497;8253;5;518;237;21;5;0;0;0;0;0;0;0;0;6;897;14463;4;463;460;584;554;28;7;621;10982;4;667;468;21;8;627;10967;4;673;465;21;9;332;5948;4;375;513;19
13.03.21;15:25:00;1;2894;12718;0;2;635;9151;4;689;397;21;3;400;5853;4;451;502;22;4;561;8212;5;584;236;22;5;0;0;0;0;0;0;0;0;6;998;14387;4;508;509;589;556;28;7;703;10931;4;756;471;21;8;711;10915;4;763;465;21;9;382;5921;4;427;515;19
13.03.21;15:20:00;1;2699;12473;0;2;589;9098;4;640;395;21;3;371;5820;4;418;498;22;4;518;8165;5;540;235;22;5;0;0;0;0;0;0;0;0;6;939;14303;4;469;469;580;554;28;7;685;10871;4;728;467;21;8;681;10855;4;735;465;21;9;366;5889;4;412;511;19
13.03.21;15:15:00;1;2723;12246;0;2;688;9049;4;743;402;21;3;432;5789;4;485;506;23;4;609;8122;5;635;234;22;5;0;0;0;0;0;0;0;0;6;1083;14225;4;553;545;585;561;28;7;780;10814;4;834;466;22;8;779;10798;4;828;461;21;9;420;5858;4;465;519;20
13.03.21;15:10:00;1;2865;12019;0;2;684;8993;4;740;400;21;3;432;5753;4;484;508;23;4;611;8072;5;636;239;22;5;0;0;0;0;0;0;0;0;6;1085;14135;4;559;552;585;560;28;7;812;10750;4;866;469;22;8;808;10734;4;863;464;22;9;437;5824;4;485;513;20
13.03.21;15:05:00;1;1094;11814;0;2;741;8936;4;798;402;22;3;470;5717;4;520;504;23;4;655;8021;5;682;238;22;5;0;0;0;0;0;0;0;0;6;1169;14044;4;600;595;586;556;28;7;847;10683;4;899;475;22;8;838;10667;4;892;470;22;9;453;5787;4;499;513;20
13.03.21;15:00:00;1;1371;11734;0;2;851;8875;4;912;401;22;3;539;5678;4;597;517;23;4;757;7967;5;788;239;23;5;0;0;0;0;0;0;0;0;6;1332;13946;4;685;675;587;560;28;7;981;10613;4;1038;474;22;8;975;10597;4;1026;465;22;9;526;5750;4;575;520;20
13.03.21;14:55:00;1;395;11632;0;2;938;8803;4;1000;400;22;3;596;5633;4;655;521;23;4;831;7903;5;865;239;23;5;0;0;0;0;0;0;0;0;6;1429;13833;4;735;725;596;566;28;7;1083;10531;4;1143;476;22;8;1082;10515;4;1143;470;22;9;587;5706;4;640;529;20
13.03.21;14:50:00;1;407;11600;0;2;843;8725;4;903;402;22;3;535;5583;4;592;508;23;4;741;7834;5;772;241;23;5;0;0;0;0;0;0;0;0;6;1294;13714;4;660;660;585;560;28;7;960;10440;4;1020;473;22;8;965;10425;4;1023;474;22;9;520;5657;4;570;515;20
13.03.21;14:45:00;1;504;11567;0;2;847;8654;4;907;406;22;3;540;5539;4;595;513;23;4;752;7772;5;783;236;23;5;0;0;0;0;0;0;0;0;6;1304;13605;4;655;656;590;562;28;7;978;10360;4;1040;470;22;8;981;10345;4;1041;474;22;9;530;5613;4;582;522;20
13.03.21;14:40:00;1;442;11524;0;2;839;8584;4;899;406;23;3;535;5493;4;592;514;23;4;749;7709;5;780;241;23;5;0;0;0;0;0;0;0;0;6;1308;13497;4;662;661;589;564;29;7;976;10278;4;1038;473;23;8;983;10264;4;1035;472;22;9;530;5570;4;582;523;21
13.03.21;14:35:00;1;674;11487;0;2;899;8514;4;960;406;23;3;570;5449;4;630;518;24;4;795;7647;5;828;242;23;5;0;0;0;0;0;0;0;0;6;1403;13387;4;738;726;592;566;29;7;1039;10198;4;1098;479;23;8;1039;10182;4;1097;470;22;9;560;5526;4;612;525;21
13.03.21;14:30:00;1;544;11421;0;2;984;8439;4;1049;405;23;3;625;5401;4;686;512;24;4;870;7580;5;906;240;23;5;0;0;0;0;0;0;0;0;6;1523;13269;4;772;768;588;565;29;7;1135;10111;4;1199;478;23;8;1131;10095;4;1194;470;23;9;608;5479;4;665;530;21
13.03.21;14:25:00;1;484;11378;0;2;971;8356;4;1035;404;23;3;622;5349;4;682;517;24;4;859;7508;5;894;240;23;5;0;0;0;0;0;0;0;0;6;1485;13140;4;754;746;594;563;29;7;1119;10015;4;1181;468;23;8;1126;9999;4;1188;470;23;9;609;5427;4;664;520;21
13.03.21;14:20:00;1;432;11339;0;2;911;8275;4;973;406;24;3;579;5297;4;639;517;24;4;805;7436;5;838;237;24;5;0;0;0;0;0;0;0;0;6;1430;13018;4;730;719;599;564;29;7;1028;9922;4;1096;473;23;8;1032;9905;4;1092;468;23;9;558;5376;4;609;522;21
13.03.21;14:15:00;1;420;11301;0;2;1112;8199;4;1181;403;24;3;707;5248;4;771;520;24;4;991;7369;5;1032;241;24;5;0;0;0;0;0;0;0;0;6;1747;12895;4;892;876;591;571;29;7;1271;9836;4;1351;483;23;8;1062;9819;4;1130;394;19;9;689;5330;4;751;530;22
13.03.21;14:10:00;1;407;11263;0;2;1214;8107;4;1288;409;25;3;774;5190;4;843;518;24;4;1080;7286;5;1125;240;24;5;0;0;0;0;0;0;0;0;6;1923;12749;4;1014;976;599;571;29;7;1418;9731;4;1491;479;23;8;1410;9716;4;1481;480;23;9;764;5273;4;824;523;22
13.03.21;14:05:00;1;773;11227;0;2;1487;8004;4;1572;405;25;3;959;5125;4;1034;518;25;4;1335;7196;5;1391;243;24;5;0;0;0;0;0;0;0;0;6;2266;12584;4;1192;1154;600;572;29;7;1757;9612;4;1841;480;23;8;1738;9597;4;1824;474;23;9;946;5209;4;1015;521;22